[[{"header":{"parameterUnit":"m.s-1","parameterCategory":1,"la1":30.2991,"la2":30.254,"lo1":-89.0895,"lo2":-89.0444,"dy":0.0017,"dx":0.0017,"nx":28,"ny":28,"refTime":"2025-02-10T09:00:00:Z","depth":0,"parameterNumber":2,"parameterNumberName":"U-component_of_WINDS"},"data":[0,0,0,0,0,0,0,0,0,0,0,0,0,0,0,0,0,0,0,0,0,0,0,0,0,0,0,0,0,0,0,0,0,0,0,0,0,0,0,0,0,0,0,0,0,0,0,0,0,0,0,0,0,0,0,0,0,0,-0.2533,-0.2534,0,-0.2597,-0.2598,-0.2599,-0.2651,-0.2651,-0.2652,-0.2652,-0.272,-0.2722,-0.2723,0,0,0,0,0,0,0,0,0,0,0,0,0,-0.2459,-0.246,-0.2533,-0.2534,-0.2535,-0.2597,-0.2598,-0.2599,-0.2651,-0.2651,-0.2652,-0.2653,-0.272,-0.2721,-0.2723,0,0,0,0,0,0,0,0,0,0,0,0,0,-0.2504,-0.246,-0.2533,-0.2568,-0.2572,-0.2597,-0.2598,-0.2599,-0.265,-0.2651,-0.2652,-0.2653,-0.2719,-0.2721,-0.2723,-0.2719,0,0,-0.2729,-0.273,0,0,0,0,0,0,0,0,-0.2501,-0.2506,-0.2562,-0.2566,-0.257,-0.2617,-0.2597,-0.2639,-0.265,-0.2621,-0.2652,-0.2653,-0.2685,-0.269,-0.27,-0.2722,-0.2725,-0.2729,-0.2731,-0.2731,-0.2732,0,0,0,0,0,0,0,-0.2498,-0.2504,-0.2559,-0.2563,-0.2568,-0.2581,-0.2589,-0.2605,-0.2648,-0.2623,-0.2627,-0.2634,-0.2688,-0.2698,-0.2702,-0.2726,-0.2729,-0.2731,-0.2732,-0.2733,-0.2748,-0.2747,0,0,0,0,0,0,-0.2489,-0.2501,-0.2557,-0.2561,-0.2537,-0.2582,-0.259,-0.2601,-0.2648,-0.2656,-0.2633,-0.2636,-0.2695,-0.27,-0.2705,-0.2703,-0.2731,-0.2733,-0.2734,-0.2749,-0.2748,-0.2747,0,0,0,0,0,0,-0.2487,-0.2493,-0.2554,-0.2532,-0.2541,-0.2583,-0.2594,-0.2602,-0.2613,-0.2655,-0.2663,-0.2636,-0.2696,-0.2702,-0.2715,-0.2706,-0.2734,-0.2736,-0.275,-0.2748,-0.2747,-0.2699,0,0,0,0,0,0,-0.2485,-0.2493,-0.2491,-0.2531,-0.2542,-0.2562,-0.2594,-0.2602,-0.2616,-0.262,-0.266,-0.2668,-0.2697,-0.2712,-0.2717,-0.2709,-0.2737,-0.2751,-0.2749,-0.2748,-0.2702,-0.2696,-0.2692,0,0,0,0,0,-0.2482,-0.2476,-0.2491,-0.2497,-0.254,-0.2562,-0.2567,-0.26,-0.2615,-0.2614,-0.2641,-0.2666,-0.2706,-0.2713,-0.2719,-0.2712,-0.2751,-0.2749,-0.2748,-0.2704,-0.2697,-0.2692,0,0,0,0,0,0,-0.2434,-0.2482,-0.2499,-0.2505,-0.2529,-0.257,-0.257,-0.2593,-0.2613,-0.2617,-0.2657,-0.2666,-0.2674,-0.2695,-0.2701,-0.271,-0.2732,-0.2731,-0.2697,-0.2691,-0.2686,-0.2681,-0.2739,0,0,0,0,0,-0.2424,-0.2437,-0.2478,-0.248,-0.249,-0.2528,-0.2538,-0.2561,-0.2588,-0.2599,-0.2627,-0.2652,-0.2671,-0.2682,-0.2701,-0.2705,-0.2714,-0.2703,-0.2698,-0.2694,-0.2693,-0.2696,-0.2691,-0.2741,-0.2741,-0.2741,0,0,-0.2404,-0.2432,-0.2437,-0.2471,-0.2492,-0.2504,-0.2536,-0.2548,-0.2558,-0.2601,-0.2614,-0.2636,-0.2667,-0.2675,-0.268,-0.2692,-0.2681,-0.2692,-0.2688,-0.2689,-0.2694,-0.2689,-0.2685,-0.274,-0.274,-0.274,0,0,-0.2374,-0.2396,-0.2399,-0.2419,-0.245,-0.2475,-0.2476,-0.2514,-0.2529,-0.2543,-0.2575,-0.2588,-0.2619,-0.2639,-0.2654,-0.263,-0.2654,-0.2635,-0.261,-0.2612,-0.2608,-0.2605,-0.2596,-0.2593,-0.2634,-0.2634,-0.2634,0,-0.2346,-0.2365,-0.2399,-0.2408,-0.2422,-0.246,-0.2464,-0.2482,-0.2518,-0.2527,-0.254,-0.2578,-0.2602,-0.2615,-0.2609,-0.262,-0.2622,-0.2631,-0.2606,-0.2603,-0.2601,-0.2593,-0.2589,-0.2632,-0.2632,-0.2632,-0.2632,0,-0.2328,-0.2341,-0.234,-0.2372,-0.2386,-0.2393,-0.2428,-0.2438,-0.2459,-0.2483,-0.2497,-0.2526,-0.2552,-0.2557,-0.2578,-0.2572,-0.2579,-0.2598,-0.2621,-0.2593,-0.2586,-0.2583,-0.2628,-0.2629,-0.263,-0.263,0,0,-0.2271,-0.232,-0.2319,-0.2334,-0.237,-0.2381,-0.239,-0.2414,-0.2421,-0.2445,-0.2453,-0.2477,-0.2495,-0.2512,-0.2536,-0.2538,-0.2517,-0.2558,-0.2559,-0.2549,-0.2512,-0.2497,-0.2493,-0.2533,-0.2533,-0.2532,-0.2509,0,-0.2246,-0.2262,-0.2292,-0.2299,-0.2311,-0.2347,-0.2355,-0.2378,-0.24,-0.2414,-0.2439,-0.2456,-0.2478,-0.2488,-0.2492,-0.2519,-0.251,-0.2521,-0.2542,-0.2542,-0.2532,-0.249,-0.2474,-0.2451,-0.2507,-0.2507,-0.2506,0,-0.222,-0.2239,-0.2247,-0.2281,-0.2288,-0.2294,-0.2317,-0.233,-0.2358,-0.2374,-0.2391,-0.2417,-0.2429,-0.2449,-0.2466,-0.2472,-0.2483,-0.2497,-0.2497,-0.25,-0.2522,-0.2492,-0.2444,-0.2441,-0.2502,-0.2503,-0.2503,0,-0.2176,-0.2205,-0.2213,-0.2225,-0.2265,-0.2268,-0.2286,-0.2314,-0.2326,-0.2347,-0.2355,-0.2378,-0.239,-0.2407,-0.2439,-0.2451,-0.2452,-0.2475,-0.2466,-0.2465,-0.2465,-0.2464,-0.2418,-0.2471,-0.2471,-0.2471,-0.2471,0,-0.2146,-0.2149,-0.2194,-0.2199,-0.2203,-0.2238,-0.2242,-0.2263,-0.2287,-0.2297,-0.233,-0.2339,-0.238,-0.2394,-0.2419,-0.2429,-0.2435,-0.2448,-0.2455,-0.2445,-0.2443,-0.2453,-0.2455,-0.247,-0.247,-0.2471,-0.2471,0,-0.2099,-0.2129,-0.214,-0.2177,-0.2186,-0.2188,-0.222,-0.2226,-0.225,-0.2262,-0.2267,-0.2304,-0.2322,-0.2355,-0.2383,-0.24,-0.2404,-0.2416,-0.2395,-0.2399,-0.2387,-0.2388,-0.2346,-0.2342,-0.2397,-0.2396,-0.2396,0,-0.2077,-0.208,-0.2117,-0.2125,-0.2141,-0.2154,-0.2166,-0.22,-0.2212,-0.2242,-0.2245,-0.2265,-0.2283,-0.231,-0.2341,-0.2362,-0.2374,-0.2358,-0.2378,-0.2368,-0.2374,-0.2373,-0.2374,-0.2354,-0.2353,-0.2352,-0.2352,0,-0.2036,-0.205,-0.2066,-0.2086,-0.2099,-0.2117,-0.2137,-0.2142,-0.2181,-0.2192,-0.221,-0.2224,-0.2251,-0.2271,-0.2296,-0.2315,-0.234,-0.2345,-0.2344,-0.2334,-0.2322,-0.2328,-0.2382,-0.2346,-0.2346,-0.2347,-0.2347,-0.2347,-0.2001,-0.2005,-0.2031,-0.2047,-0.2065,-0.2083,-0.209,-0.2114,-0.2129,-0.2153,-0.2173,-0.2189,-0.2216,-0.2252,-0.2269,-0.2283,-0.2295,-0.2293,-0.2293,-0.2292,-0.2288,-0.2319,-0.2288,-0.2288,-0.2288,-0.2289,-0.2289,0,-0.1962,-0.198,-0.1994,-0.202,-0.2032,-0.2052,-0.2075,-0.2085,-0.2098,-0.212,-0.2137,-0.2157,-0.2176,-0.2207,-0.2229,-0.2234,-0.2246,-0.2238,-0.2239,-0.2242,-0.2276,-0.2275,-0.2228,-0.2228,-0.2228,-0.2228,-0.2228,-0.2228,-0.1943,-0.195,-0.1967,-0.1984,-0.2003,-0.2018,-0.2029,-0.2045,-0.2063,-0.2084,-0.2099,-0.2119,-0.2145,-0.2168,-0.2187,-0.2195,-0.2202,-0.2191,-0.2203,-0.2235,-0.224,-0.2246,-0.2244,-0.2192,-0.2192,-0.2168,-0.2168,-0.2168]},{"header":{"parameterUnit":"m.s-1","parameterCategory":1,"la1":30.2991,"la2":30.254,"lo1":-89.0895,"lo2":-89.0444,"dy":0.0017,"dx":0.0017,"nx":28,"ny":28,"refTime":"2025-02-10T09:00:00:Z","depth":0,"parameterNumber":3,"parameterNumberName":"V-component_of_WINDS"},"data":[0,0,0,0,0,0,0,0,0,0,0,0,0,0,0,0,0,0,0,0,0,0,0,0,0,0,0,0,0,0,0,0,0,0,0,0,0,0,0,0,0,0,0,0,0,0,0,0,0,0,0,0,0,0,0,0,0,0,5.0742,5.0745,0,5.1001,5.1004,5.1007,5.1095,5.1094,5.1093,5.1092,5.1357,5.1365,5.1373,0,0,0,0,0,0,0,0,0,0,0,0,0,5.0325,5.0332,5.0741,5.0745,5.0748,5.1,5.1004,5.1007,5.1095,5.1094,5.1093,5.1091,5.1354,5.1364,5.1374,0,0,0,0,0,0,0,0,0,0,0,0,0,5.0537,5.0334,5.0741,5.0822,5.0832,5.1,5.1004,5.1008,5.1095,5.1094,5.1092,5.1091,5.1351,5.1363,5.1375,5.148,0,0,5.1412,5.1417,0,0,0,0,0,0,0,0,5.0525,5.0552,5.0807,5.0817,5.0828,5.1014,5.0954,5.1167,5.1096,5.0995,5.1092,5.109,5.1244,5.1265,5.1317,5.1493,5.1504,5.1413,5.142,5.1425,5.1429,0,0,0,0,0,0,0,5.051,5.0542,5.0844,5.0811,5.0824,5.0846,5.0875,5.0995,5.1125,5.1004,5.1011,5.1041,5.125,5.1305,5.1324,5.1508,5.1412,5.1423,5.1431,5.1435,5.1786,5.1788,0,0,0,0,0,0,5.0482,5.0529,5.0836,5.0852,5.067,5.0855,5.0887,5.0956,5.1124,5.1148,5.1042,5.1044,5.1285,5.131,5.1333,5.147,5.1425,5.1436,5.1443,5.1784,5.1787,5.1789,0,0,0,0,0,0,5.0472,5.0508,5.0825,5.0692,5.0735,5.0864,5.0941,5.0962,5.1017,5.1153,5.1176,5.1074,5.1285,5.1316,5.1444,5.1481,5.1442,5.1453,5.1782,5.1785,5.1788,5.1743,0,0,0,0,0,0,5.046,5.0504,5.0545,5.0693,5.0741,5.0931,5.0943,5.0968,5.1038,5.1043,5.119,5.1212,5.1286,5.1425,5.1456,5.1497,5.1462,5.1779,5.1783,5.1787,5.1742,5.1744,5.1746,0,0,0,0,0,5.0445,5.0521,5.0547,5.0583,5.0795,5.0933,5.0961,5.1044,5.104,5.1083,5.1171,5.1208,5.1471,5.1438,5.1473,5.1517,5.1777,5.1782,5.1787,5.1741,5.1744,5.1746,0,0,0,0,0,0,5.0374,5.0542,5.0572,5.0699,5.0801,5.0947,5.1004,5.1044,5.1149,5.115,5.1249,5.1281,5.1402,5.1472,5.1432,5.163,5.1626,5.1638,5.1579,5.1583,5.1586,5.1567,5.1472,0,0,0,0,0,5.0373,5.0471,5.0612,5.0711,5.076,5.0873,5.0936,5.0992,5.1102,5.1145,5.1242,5.1347,5.1454,5.1522,5.1628,5.1752,5.1786,5.18,5.1802,5.1804,5.1813,5.1887,5.1895,5.1805,5.1805,5.1805,0,0,5.0373,5.0477,5.0532,5.0699,5.0785,5.0885,5.0909,5.1013,5.1088,5.1161,5.1288,5.1362,5.1487,5.1613,5.1674,5.1676,5.1846,5.181,5.181,5.1819,5.1892,5.1901,5.1908,5.1808,5.1807,5.1807,0,0,5.0423,5.051,5.0603,5.0689,5.0819,5.0894,5.0915,5.1057,5.111,5.1238,5.1296,5.1387,5.1568,5.1656,5.1723,5.1809,5.1848,5.184,5.1852,5.1923,5.193,5.1937,5.1969,5.1979,5.1849,5.1849,5.1849,0,5.0406,5.0558,5.0646,5.0748,5.082,5.0891,5.0987,5.1066,5.1223,5.1272,5.1272,5.1503,5.1592,5.1741,5.1762,5.1814,5.1843,5.1824,5.1922,5.1929,5.1937,5.1969,5.1981,5.1847,5.1847,5.1848,5.1848,0,5.0532,5.0637,5.0696,5.0848,5.0927,5.1025,5.1128,5.1198,5.1246,5.1321,5.1453,5.1562,5.1692,5.1731,5.1779,5.1888,5.1886,5.1902,5.1901,5.1943,5.1975,5.1988,5.1845,5.1846,5.1846,5.1846,0,0,5.0546,5.0745,5.0765,5.0836,5.0985,5.1068,5.117,5.1298,5.1357,5.1463,5.1552,5.1705,5.1722,5.1799,5.1858,5.1919,5.1983,5.1929,5.1933,5.1937,5.2112,5.21,5.2112,5.2009,5.2011,5.2014,5.2102,0,5.0617,5.0802,5.0884,5.1033,5.1132,5.1201,5.1291,5.1392,5.1465,5.156,5.1641,5.1749,5.1762,5.1809,5.1873,5.1961,5.2019,5.1956,5.2094,5.2098,5.2062,5.2129,5.2116,5.2194,5.2115,5.2117,5.2119,0,5.0725,5.0832,5.0991,5.113,5.1175,5.1253,5.1378,5.1468,5.1585,5.1634,5.1721,5.1778,5.1889,5.1879,5.2034,5.1989,5.205,5.2102,5.2107,5.2125,5.2112,5.215,5.2221,5.2233,5.2139,5.2137,5.2136,0,5.0721,5.0905,5.1025,5.1083,5.1248,5.1302,5.1373,5.1489,5.1561,5.167,5.1718,5.1838,5.1904,5.1997,5.2085,5.2069,5.2232,5.2229,5.2278,5.2275,5.231,5.2307,5.2394,5.2346,5.2346,5.2346,5.2345,0,5.0793,5.0888,5.1026,5.1099,5.1208,5.1302,5.1407,5.1484,5.1586,5.1677,5.1744,5.1827,5.1938,5.2035,5.2105,5.2224,5.2253,5.2297,5.2314,5.2292,5.2287,5.2335,5.2332,5.2349,5.2348,5.2347,5.2347,0,5.0808,5.0904,5.1039,5.1185,5.1224,5.1297,5.1423,5.1497,5.1573,5.1687,5.1719,5.184,5.1958,5.2055,5.221,5.2257,5.2383,5.2402,5.2343,5.2353,5.2396,5.2392,5.2519,5.2541,5.2476,5.2476,5.2476,0,5.0849,5.0924,5.1077,5.1143,5.1214,5.1318,5.1392,5.1488,5.1563,5.1703,5.1761,5.1885,5.1989,5.2176,5.2277,5.2397,5.2421,5.2457,5.2439,5.2415,5.2424,5.2419,5.2429,5.2459,5.2459,5.246,5.246,0,5.0911,5.0956,5.106,5.1182,5.1269,5.137,5.1472,5.1522,5.1637,5.1717,5.184,5.1921,5.208,5.2203,5.2334,5.2408,5.2454,5.2464,5.2483,5.2461,5.2425,5.2447,5.235,5.2461,5.2461,5.2461,5.2461,5.2461,5.0943,5.1013,5.1133,5.1248,5.1335,5.1429,5.1507,5.1594,5.1698,5.1835,5.1885,5.2012,5.2129,5.2309,5.2384,5.2485,5.249,5.2515,5.2522,5.2527,5.2526,5.2407,5.2509,5.2509,5.2509,5.2509,5.2509,0,5.1011,5.1091,5.1196,5.1338,5.1428,5.1463,5.1579,5.1652,5.1763,5.1868,5.197,5.2112,5.2232,5.2343,5.2468,5.2528,5.2552,5.2558,5.2555,5.2572,5.2513,5.2486,5.2536,5.2536,5.2536,5.2536,5.2536,5.2536,5.1057,5.1179,5.1237,5.1404,5.1484,5.1609,5.1672,5.176,5.1845,5.2001,5.2101,5.2172,5.2281,5.2415,5.2527,5.2557,5.2601,5.2601,5.2636,5.258,5.2576,5.2572,5.2547,5.2609,5.2609,5.2688,5.2688,5.2689]}]]